Events

Displaying 6201 - 6300 of 8536

Download data entry template

Text Pg Order within Page Datesort descending Location Chronological Order Creation date Updated date
"Smoke" 20 4 1929-07-03 to 1929-08-31 Mardis Cemetery in "Smoke" (Location) 32.00 view Tue, 2021-01-05 15:10 Tue, 2021-01-12 08:04
"Smoke" 21 2 1929-07-04 to 1929-12-31 Granby Dodge's Farm in "Smoke" (Location) 32.90 view Tue, 2021-01-05 15:26 Thu, 2021-01-07 10:10
The Mansion 174 3 1929-07-04 to 1929-08-08 Sartoris Bank|Merchants' and Farmers' Bank in The Mansion (Location) 376.80 view Sat, 2018-04-21 04:14 Wed, 2021-10-27 09:31
"Smoke" 24 5 1929-07-04 to 1929-08-31 Anselm Holland's Cabin in "Smoke" (Location) 31.15 view Mon, 2017-01-09 19:03 Tue, 2021-01-12 08:06
"Death Drag" 194 2 1929-07-04 Scene of Jock's Plane Accident in "Death Drag" (Location) 2.00 view Wed, 2014-01-29 07:03 Tue, 2021-10-12 12:37
The Mansion 174 5 1929-07-04 to 1929-08-08 De Spain Mansion in The Mansion (Location) 376.81 view Sat, 2018-04-21 04:32 Wed, 2021-10-27 09:36
The Mansion 176 1 1929-07-04 to 1929-08-08 De Spain Mansion in The Mansion (Location) 376.50 view Sat, 2018-04-21 07:21 Wed, 2021-10-27 09:42
"Smoke" 4 5 1929-07-05 to 1929-08-31 Mardis Cemetery in "Smoke" (Location) 31.20 view Mon, 2017-01-09 16:22 Tue, 2021-01-12 08:15
The Mansion 182 1 1929-07-05 to 1929-08-09 Courthouse and Square in The Mansion (Location) 376.90 view Sat, 2018-04-21 09:05 Wed, 2021-10-27 09:57
"The Hound" 158 2 1929-07-06 to 1929-07-08 Varner's Store in "The Hound" (Location) 9.00 view Fri, 2016-05-13 09:31 Fri, 2021-10-08 08:45
"The Hound" 158 3 1929-07-06 to 1929-07-08 Cotton's Farm in "The Hound" (Location) 10.00 view Fri, 2016-05-13 09:34 Fri, 2021-10-08 08:46
"The Hound" 159 1 1929-07-06 to 1929-07-08 Rotting Tree in The Hound|The Hamlet in "The Hound" (Location) 11.00 view Fri, 2016-05-13 09:37 Fri, 2021-10-08 08:47
"The Hound" 159 2 1929-07-06 to 1929-07-08 Slough in "The Hound"|The Hamlet in "The Hound" (Location) 12.00 view Fri, 2016-05-13 09:39 Fri, 2021-10-08 08:49
"Smoke" 10 2 1929-07-06 to 1929-08-31 Mardis Cemetery in "Smoke" (Location) 35.00 view Mon, 2017-01-09 18:14 Thu, 2021-01-07 09:37
The Town 379 1 1929-07-06 to 1929-07-31 Jefferson Drugstore in The Town (Location) 346.00 view Fri, 2018-06-29 10:49 Thu, 2020-05-14 11:53
"The Hound" 159 3 1929-07-06 to 1929-07-11 Cotton's Farm in "The Hound" (Location) 13.00 view Fri, 2016-05-13 09:43 Fri, 2021-10-08 08:50
"Smoke" 10 3 1929-07-06 to 1929-08-31 Granby Dodge's Farm in "Smoke" (Location) 35.70 view Mon, 2017-01-09 18:17 Thu, 2021-01-07 09:38
"The Hound" 156 1 1929-07-06 to 1929-07-08 Varner's Store in "The Hound" (Location) 8.00 view Fri, 2016-05-13 09:18 Fri, 2021-10-08 08:42
The Town 379 2 1929-07-08 to 1929-07-31 Coca Cola Bottling Plant in The Town (Location) 347.00 view Mon, 2018-03-19 20:54 Thu, 2020-05-14 11:57
The Town 380 1 1929-07-09 to 1929-07-31 Snopes Hotel|Jefferson Hotel in The Town (Location) 348.00 view Fri, 2018-06-29 10:55 Thu, 2020-05-14 12:00
The Town 381 1 1929-07-09 to 1929-07-31 Widrington House in The Town (Location) 349.00 view Fri, 2018-06-29 16:53 Thu, 2020-05-14 12:27
"Smoke" 36 1 1929-07-10 to 1929-08-31 Jefferson Drugstore|Christian's Drugstore|West's Drugstore in "Smoke" (Location) 35.04 view Mon, 2017-01-09 20:00 Thu, 2021-01-07 11:23
"The Hound" 159 4 1929-07-11 Varner's Store in "The Hound" (Location) 14.00 view Fri, 2016-05-13 10:35 Fri, 2021-10-08 08:51
"The Hound" 160 1 1929-07-11 to 1929-07-12 Cotton's Farm in "The Hound" (Location) 15.00 view Fri, 2016-05-13 10:39 Fri, 2021-10-08 09:00
The Town 382 1 1929-07-12 to 1929-07-31 Jefferson School in The Town (Location) 351.00 view Mon, 2018-03-19 21:13 Thu, 2020-05-14 16:58
The Town 381 2 1929-07-12 to 1929-07-31 Jefferson Drugstore in The Town (Location) 350.00 view Fri, 2018-06-29 17:00 Tue, 2020-06-09 15:38
"The Hound" 160 2 1929-07-12 Cotton's Farm in "The Hound" (Location) 16.00 view Fri, 2016-05-13 10:43 Fri, 2021-10-08 09:01
"The Hound" 160 3 1929-07-12 Rotting Tree in The Hound|The Hamlet in "The Hound" (Location) 17.00 view Fri, 2016-05-13 10:49 Fri, 2021-10-08 09:04
"The Hound" 161 1 1929-07-12 to 1929-07-13 River Bank in "The Hound" in "The Hound" (Location) 18.00 view Fri, 2016-05-13 10:54 Fri, 2021-10-08 09:28
"The Hound" 162 1 1929-07-13 Rotting Tree in The Hound|The Hamlet in "The Hound" (Location) 19.00 view Fri, 2016-05-13 11:00 Fri, 2021-10-08 09:29
"The Hound" 162 2 1929-07-13 Southeast Road|Jefferson to Frenchman's Bend in "The Hound" (Location) 20.00 view Fri, 2016-05-13 13:27 Fri, 2021-10-08 09:30
"The Hound" 163 1 1929-07-13 Site where Cotton Tries to Commit Suicide in "The Hound" (Location) 21.00 view Fri, 2016-05-13 13:32 Fri, 2021-10-08 09:32
"The Hound" 163 2 1929-07-13 Jefferson Residential Streets in "The Hound" (Location) 22.00 view Fri, 2016-05-13 14:56 Fri, 2021-10-08 09:35
"The Hound" 163 3 1929-07-13 County Jail in "The Hound" (Location) 23.00 view Fri, 2016-05-13 15:03 Fri, 2021-10-08 09:39
The Town 382 2 1929-07-13 to 1929-07-31 Judge Stevens'|Gavin Stevens' Office in The Town (Location) 352.00 view Fri, 2018-06-29 17:13 Thu, 2020-05-14 17:06
The Town 387 1 1929-07-14 to 1929-07-19 Varner's Store in The Town (Location) 358.00 view Sat, 2018-06-30 09:48 Fri, 2020-05-15 11:50
The Town 383 1 1929-07-14 to 1929-07-31 Judge Stevens'|Gavin Stevens' Office in The Town (Location) 353.00 view Sat, 2018-06-30 08:54 Thu, 2020-05-14 17:09
The Town 384 2 1929-07-14 to 1929-07-31 Dewitt Binford's House in The Town (Location) 354.00 view Sat, 2018-06-30 09:15 Fri, 2020-05-15 11:34
"Hand upon the Waters" 71 3 1929-07-15 to 1939-07-15 Houses and Cabins Lonnie Grinnup Visits in "Hand upon the Waters" (Location) 5.00 view Fri, 2018-04-06 13:33 Sun, 2022-01-16 22:24
The Town 384 3 1929-07-16 to 1929-07-31 Dewitt Binford's House in The Town (Location) 355.00 view Sat, 2018-06-30 09:19 Sun, 2019-01-27 15:16
The Town 385 1 1929-07-18 to 1929-07-31 Dewitt Binford's House in The Town (Location) 356.00 view Sat, 2018-06-30 09:24 Fri, 2020-05-15 11:41
The Town 386 1 1929-07-19 to 1929-07-31 Dewitt Binford's House in The Town (Location) 357.00 view Sat, 2018-06-30 09:36 Fri, 2020-05-15 11:43
The Town 386 2 1929-07-19 to 1929-07-31 Judge Stevens'|Gavin Stevens' Office in The Town (Location) 363.00 view Sat, 2018-06-30 09:44 Fri, 2020-05-15 11:45
The Town 388 1 1929-07-19 to 1929-07-31 Varner's Store in The Town (Location) 359.00 view Sat, 2018-06-30 09:52 Fri, 2020-05-15 11:54
The Town 388 2 1929-07-19 to 1929-07-31 Snopes Children's Camp 2 in The Town (Location) 360.00 view Sat, 2018-06-30 09:57 Tue, 2021-04-06 13:26
The Town 384 1 1929-07-20 to 1929-07-31 Judge Stevens'|Gavin Stevens' Office in The Town (Location) 362.00 view Mon, 2018-03-19 21:25 Fri, 2020-05-15 11:28
The Town 389 2 1929-07-20 to 1929-07-31 Jefferson Railroad Station in The Town (Location) 365.00 view Mon, 2018-03-19 21:29 Fri, 2020-05-15 12:07
The Town 388 3 1929-07-20 to 1929-07-31 Dewitt Binford's House in The Town (Location) 361.00 view Sat, 2018-06-30 10:01 Fri, 2020-05-15 11:58
The Town 389 1 1929-07-20 to 1929-07-31 Judge Stevens'|Gavin Stevens' Office in The Town (Location) 364.00 view Sat, 2018-06-30 10:11 Fri, 2020-05-15 16:36
Light in August 35 1 1929-08-01 to 1930-02-28 Courthouse and Square in Light in August (Location) 148.10 view Sun, 2014-10-05 10:32 Wed, 2021-06-02 15:08
Sanctuary 309 6 1929-08-01 to 1929-08-31 Birmingham|Mills City, Alabama in Sanctuary (Location) 225.00 view Mon, 2014-06-02 08:47 Wed, 2021-04-07 10:09
Light in August 31 2 1929-08-01 to 1929-08-31 Jefferson Planing Mill in Light in August (Location) 148.00 view Mon, 2014-06-09 19:39 Wed, 2021-06-02 15:22
Sanctuary 302 1 1929-08-01 to 1929-08-31 Birmingham|Mills City, Alabama in Sanctuary (Location) 224.00 view Sat, 2014-05-24 15:40 Wed, 2021-04-07 10:08
Sanctuary 310 1 1929-08-01 to 1929-08-31 Town where Popeye is Executed in Sanctuary (Location) 226.00 view Sat, 2014-05-24 16:13 Sun, 2021-01-03 10:31
Sanctuary 313 1 1929-08-02 to 1929-08-31 Town where Popeye is Executed in Sanctuary (Location) 226.10 view Tue, 2020-12-22 10:32 Sun, 2021-01-03 10:41
Sanctuary 310 2 1929-08-02 to 1929-08-31 Town where Popeye is Executed in Sanctuary (Location) 226.01 view Tue, 2020-12-22 10:51 Sun, 2021-01-03 10:32
Sanctuary 311 1 1929-08-02 to 1929-08-31 Town where Popeye is Executed in Sanctuary (Location) 226.02 view Tue, 2020-12-22 10:55 Sun, 2021-01-03 10:33
Sanctuary 311 2 1929-08-03 to 1929-08-31 Town where Popeye is Executed in Sanctuary (Location) 226.03 view Tue, 2020-12-22 11:08 Sun, 2021-01-03 10:38
Light in August 79 1 1929-08-07 to 1932-02-29 Cabin at Burden Place in Light in August (Location) 149.00 view Mon, 2014-07-14 12:17 Thu, 2021-06-03 16:48
Sanctuary 316 1 1929-08-15 to 1929-09-30 Paris, France in Sanctuary (Location) 227.00 view Sat, 2014-05-24 16:22 Mon, 2021-11-01 14:22
Sanctuary 313 2 1929-08-20 to 1929-08-27 Town where Popeye is Executed in Sanctuary (Location) 226.20 view Tue, 2020-12-22 10:35 Sun, 2021-01-03 10:44
Sanctuary 314 1 1929-08-23 to 1929-08-31 Town where Popeye is Executed in Sanctuary (Location) 226.30 view Tue, 2020-12-22 10:41 Sun, 2021-01-03 10:49
Sanctuary 314 2 1929-08-25 to 1929-08-31 Town where Popeye is Executed in Sanctuary (Location) 226.40 view Tue, 2020-12-22 10:44 Sun, 2021-01-03 10:51
Sanctuary 315 1 1929-08-26 to 1929-08-31 Town where Popeye is Executed in Sanctuary (Location) 226.50 view Tue, 2020-12-22 10:47 Sun, 2021-01-03 10:52
Light in August 253 2 1929-09-01 to 1929-09-30 Cabin at Burden Place in Light in August (Location) 146.95 view Fri, 2014-08-08 19:04 Tue, 2021-06-15 16:06
Light in August 239 1 1929-09-01 to 1929-09-30 Cabin at Burden Place in Light in August (Location) 146.60 view Sat, 2015-01-03 14:34 Mon, 2021-06-14 13:26
Light in August 249 1 1929-09-01 to 1929-09-30 Cabin at Burden Place in Light in August (Location) 146.90 view Fri, 2014-08-08 18:05 Mon, 2021-06-14 15:29
Light in August 248 1 1929-09-02 to 1929-09-30 Cabin at Burden Place in Light in August (Location) 146.80 view Fri, 2014-08-08 17:46 Mon, 2021-06-14 15:12
Light in August 256 1 1929-09-02 to 1930-08-31 Burden Place in Light in August (Location) 146.96 view Fri, 2014-08-15 15:12 Tue, 2021-06-15 17:41
Light in August 240 1 1929-09-02 to 1929-09-30 Cabin at Burden Place in Light in August (Location) 146.70 view Sat, 2015-01-03 14:37 Mon, 2021-06-14 14:01
Light in August 248 3 1929-09-02 to 1929-09-30 Cabin at Burden Place in Light in August (Location) 148.85 view Wed, 2016-03-02 13:27 Mon, 2021-06-14 15:17
Light in August 249 3 1929-09-02 to 1929-09-30 Cabin at Burden Place in Light in August (Location) 146.91 view Wed, 2016-03-02 13:40 Mon, 2021-06-14 15:44
"Smoke" 10 4 1929-10-01 to 1929-12-31 Courthouse and Square in "Smoke" (Location) 36.00 view Mon, 2017-01-09 18:23 Thu, 2021-01-07 09:40
"Smoke" 18 2 1929-10-02 to 1929-11-01 Anselm Holland's Cabin in "Smoke" (Location) 36.04 view Tue, 2021-01-05 14:08 Thu, 2021-01-07 08:15
"Smoke" 4 6 1929-11-01 to 1929-12-31 Courthouse and Square in "Smoke" (Location) 31.50 view Tue, 2021-01-05 11:52 Tue, 2021-01-12 08:07
"Smoke" 12 1 1929-11-01 to 1930-01-31 Courthouse and Square in "Smoke" (Location) 36.10 view Mon, 2017-01-09 18:30 Thu, 2021-01-07 09:41
"Smoke" 12 3 1929-11-01 to 1930-01-31 Courthouse and Square in "Smoke" (Location) 36.20 view Tue, 2021-01-05 10:39 Tue, 2021-01-05 11:41
"Smoke" 20 3 1929-11-01 to 1930-01-31 Granby Dodge's Farm in "Smoke" (Location) 36.30 view Tue, 2021-01-05 15:06 Wed, 2021-01-06 07:44
"Knight's Gambit" 166 1 1929-12-15 to 1931-12-25 Stevens-Mallison Home in "Knight's Gambit" (Location) 39.00 view Fri, 2019-03-15 11:21 Sun, 2019-10-27 18:11
The Town 143 1 1930-01-01 to 1932-12-31 Judge Stevens'|Gavin Stevens' Office in The Town (Location) 404.00 view Tue, 2018-06-19 09:57 Tue, 2019-11-05 10:56
The Town 328 1 1930-01-01 to 1932-12-31 Judge Stevens'|Gavin Stevens' Office in The Town (Location) 419.00 view Tue, 2018-06-26 14:44 Mon, 2020-05-04 15:26
"Hand upon the Waters" 76 1 1930-01-01 to 1935-12-31 Memphis in "Hand upon the Waters" (Location) 6.00 view Fri, 2018-04-06 14:50 Mon, 2022-01-17 03:08
The Town 354 2 1930-01-01 to 1932-12-31 Stevens-Mallison House in The Town (Location) 423.00 view Thu, 2018-06-28 11:04 Mon, 2020-05-11 17:35
"Ad Astra" 408 1 1930-01-01 to 1930-12-31 Chicago, Illinois in "Ad Astra" (Location) 29.00 view Tue, 2018-04-24 09:18 Thu, 2019-07-11 13:39
The Town 3 1 1930-01-01 to 1932-12-31 Courthouse and Square in The Town (Location) 400.00 view Fri, 2018-06-01 13:18 Mon, 2018-12-17 11:59
The Town 224 1 1930-01-01 to 1932-12-31 Judge Stevens'|Gavin Stevens' Office in The Town (Location) 410.00 view Sat, 2018-06-23 13:41 Fri, 2020-04-10 13:57
"By the People" 130 4 1930-01-01 to 1930-08-31 Frenchman's Bend in "By the People" (Location) 9.00 view Wed, 2017-11-01 10:38 Tue, 2022-01-04 11:38
The Mansion 335 4 1930-01-01 to 1935-12-31 Courthouse and Square in The Mansion (Location) 377.00 view Sat, 2018-05-12 00:54 Fri, 2021-11-05 17:07
The Town 3 3 1930-01-01 to 1932-12-31 Courthouse and Square in The Town (Location) 401.00 view Fri, 2018-06-01 13:43 Mon, 2018-12-17 12:39
The Town 315 1 1930-01-01 to 1932-12-31 Stevens-Mallison House in The Town (Location) 416.00 view Mon, 2018-06-25 14:04 Thu, 2020-04-30 15:37
The Town 296 1 1930-01-01 to 1932-12-31 Judge Stevens'|Gavin Stevens' Office in The Town (Location) 412.00 view Tue, 2018-07-03 14:14 Tue, 2020-04-28 16:44
"Mule in the Yard" 254 1 1930-01-01 to 1933-12-31 Jefferson Railroad Station in "Mule in the Yard" (Location) 12.00 view Sun, 2014-05-18 15:20 Thu, 2019-07-11 14:53
Requiem for a Nun 156 1 1930-01-01 to 1932-12-31 County Jail in Requiem for a Nun (Location) 136.00 view Thu, 2019-05-30 13:04 Tue, 2021-07-06 09:28
"A Bear Hunt" 64 1 1930-01-01 to 1933-12-31 Courthouse and Square in "A Bear Hunt" (Location) 7.00 view Wed, 2017-10-04 10:18 Thu, 2022-01-13 17:18
The Mansion 361 3 1930-01-01 to 1941-12-07 Meadowfill's Sawmill in The Mansion (Location) 378.00 view Wed, 2018-06-13 12:17 Sat, 2021-11-06 14:51
The Town 334 1 1930-01-01 to 1932-12-31 Judge Stevens'|Gavin Stevens' Office in The Town (Location) 420.00 view Wed, 2018-06-27 09:19 Tue, 2020-05-05 15:33
The Town 216 1 1930-01-01 to 1932-12-31 Judge Stevens'|Gavin Stevens' Office in The Town (Location) 407.00 view Sat, 2018-06-23 08:42 Thu, 2020-04-09 15:43
The Town 304 3 1930-01-01 to 1932-12-31 Judge Stevens'|Gavin Stevens' Office in The Town (Location) 415.00 view Wed, 2018-07-04 09:08 Wed, 2020-04-29 17:04
The Town 357 3 1930-01-01 to 1932-12-31 Stevens-Mallison House in The Town (Location) 425.00 view Thu, 2018-06-28 11:38 Tue, 2020-05-12 16:26
The Town 301 1 1930-01-01 to 1932-12-31 Judge Stevens'|Gavin Stevens' Office in The Town (Location) 413.00 view Tue, 2018-07-03 14:26 Wed, 2020-04-29 16:37

Pages

Subscribe to Events